Regional Weather Roundup
Issued by NWS

Current Version | Previous Version | Text Only | Print | Product List | Glossary On
Versions: 1 2 3 4 5 6 7 8 9 10 11 12 13 14 15 16 17 18 19 20 21 22 23 24 25 26 27 28 29 30 31 32 33 34 35 36 37 38 39 40 41 42 43 44 45 46 47 48 49 50
000
ASUS43 KBIS 040602
RWRND

NORTH DAKOTA REGIONAL WEATHER ROUNDUP
NATIONAL WEATHER SERVICE BISMARCK ND
100 AM CDT TUE OCT 04 2022

NOTE: "FAIR" INDICATES FEW OR NO CLOUDS BELOW 12,000 FEET WITH NO
SIGNIFICANT WEATHER AND/OR OBSTRUCTIONS TO VISIBILITY.


NDZ001>003-009>011-017-040700-
NORTHWEST NORTH DAKOTA

CITY           SKY/WX    TMP DP  RH WIND       PRES   REMARKS
WILLISTON      MOCLDY    54  52  93 W7        30.12F FOG
6HR MIN TEMP:  54; 6HR MAX TEMP:  57;

MINOT          CLEAR     54  50  86 SW7       30.08S
$$

NDZ018>021-031>035-040>046-040700-
SOUTHWEST NORTH DAKOTA

CITY           SKY/WX    TMP DP  RH WIND       PRES   REMARKS
BISMARCK       MOCLDY    56  52  86 NW6       30.12S
6HR MIN TEMP:  55; 6HR MAX TEMP:  66;

DICKINSON      CLEAR     48  46  93 SW3       30.13S
GARRISON         N/A     54  51  90 W6        30.11R
6HR MIN TEMP:  54; 6HR MAX TEMP:  63;

HETTINGER ARPT PTCLDY    43  42  97 W3        30.16S FOG
$$

NDZ004>008-012>016-024-026-027-054-040700-
NORTHEAST NORTH DAKOTA

CITY           SKY/WX    TMP DP  RH WIND       PRES   REMARKS
GRAND FORKS    CLOUDY    61  53  75 S6        30.04F
GRND FRKS AFB  CLOUDY    60  53  77 S7        30.02F
DEVILS LAKE    PTCLDY    52  51  97 CALM      30.05S
$$

NDZ022-023-025-028>030-036>039-047>053-040700-
SOUTHEAST NORTH DAKOTA

CITY           SKY/WX    TMP DP  RH WIND       PRES   REMARKS
FARGO          CLOUDY    63  49  60 SE6       30.07F
6HR MIN TEMP:  60; 6HR MAX TEMP:  66; 6HR PCP: TRACE;

$$




USA.gov is the U.S. government's official web portal to all federal, state and local government web resources and services.